Time,TemperatureF,DewpointF,PressureIn,WindDirection,WindDirectionDegrees,WindSpeedMPH,WindSpeedGustMPH,Humidity,HourlyPrecipIn,Conditions,Clouds,dailyrainin,SoftwareType,DateUTC
2013-05-29 00:01:00,65.5,50.9,29.68,North,0,0.0,0.0,59,0.00,,,0.00,WUHU216HW,2013-05-29 07:01:00,
2013-05-29 00:06:00,65.5,51.3,29.68,North,0,0.0,0.0,60,0.00,,,0.00,WUHU216HW,2013-05-29 07:06:00,
2013-05-29 00:11:00,65.5,51.3,29.69,North,0,0.0,0.0,60,0.00,,,0.00,WUHU216HW,2013-05-29 07:11:00,
2013-05-29 00:16:00,65.5,50.9,29.69,North,0,0.0,0.0,59,0.00,,,0.00,WUHU216HW,2013-05-29 07:16:00,
2013-05-29 00:21:00,65.5,50.9,29.69,North,0,0.0,0.0,59,0.00,,,0.00,WUHU216HW,2013-05-29 07:21:00,
2013-05-29 00:26:00,65.3,50.7,29.68,North,0,0.0,0.0,59,0.00,,,0.00,WUHU216HW,2013-05-29 07:26:00,
2013-05-29 00:31:00,65.2,50.5,29.68,North,0,0.0,0.0,59,0.00,,,0.00,WUHU216HW,2013-05-29 07:31:00,
2013-05-29 00:36:00,65.0,50.3,29.69,North,0,0.0,0.0,59,0.00,,,0.00,WUHU216HW,2013-05-29 07:36:00,
2013-05-29 00:41:00,64.8,50.6,29.69,North,0,0.0,0.0,60,0.00,,,0.00,WUHU216HW,2013-05-29 07:41:00,
2013-05-29 00:46:00,64.6,50.4,29.69,North,0,0.0,0.0,60,0.00,,,0.00,WUHU216HW,2013-05-29 07:46:00,
2013-05-29 00:51:00,64.4,50.7,29.68,North,0,0.0,0.0,61,0.00,,,0.00,WUHU216HW,2013-05-29 07:51:00,
2013-05-29 00:56:00,64.3,50.5,29.69,North,0,0.0,0.0,61,0.00,,,0.00,WUHU216HW,2013-05-29 07:56:00,
2013-05-29 01:01:00,64.1,50.3,29.68,North,0,0.0,0.0,61,0.00,,,0.00,WUHU216HW,2013-05-29 08:01:00,
2013-05-29 01:06:00,64.1,50.3,29.68,North,0,0.0,0.0,61,0.00,,,0.00,WUHU216HW,2013-05-29 08:06:00,
2013-05-29 01:11:00,63.7,50.4,29.68,North,0,0.0,0.0,62,0.00,,,0.00,WUHU216HW,2013-05-29 08:11:00,
2013-05-29 01:16:00,63.7,50.4,29.68,North,0,0.0,0.0,62,0.00,,,0.00,WUHU216HW,2013-05-29 08:16:00,
2013-05-29 01:21:00,63.7,50.4,29.68,North,0,0.0,0.0,62,0.00,,,0.00,WUHU216HW,2013-05-29 08:21:00,
2013-05-29 01:26:00,63.7,50.9,29.68,North,0,0.0,0.0,63,0.00,,,0.00,WUHU216HW,2013-05-29 08:26:00,
2013-05-29 01:31:00,63.7,50.9,29.68,North,0,0.0,0.0,63,0.00,,,0.00,WUHU216HW,2013-05-29 08:31:00,
2013-05-29 01:36:00,63.7,50.9,29.68,North,0,0.0,0.0,63,0.00,,,0.00,WUHU216HW,2013-05-29 08:36:00,
2013-05-29 01:41:00,63.4,50.5,29.68,North,0,0.0,0.0,63,0.00,,,0.00,WUHU216HW,2013-05-29 08:41:00,
2013-05-29 01:46:00,63.4,50.5,29.68,North,0,0.0,0.0,63,0.00,,,0.00,WUHU216HW,2013-05-29 08:46:00,
2013-05-29 01:51:00,63.2,50.3,29.67,North,0,0.0,0.0,63,0.00,,,0.00,WUHU216HW,2013-05-29 08:51:00,
2013-05-29 01:56:00,63.2,50.8,29.68,North,0,0.0,0.0,64,0.00,,,0.00,WUHU216HW,2013-05-29 08:56:00,
2013-05-29 02:01:00,63.2,50.8,29.68,North,0,0.0,0.0,64,0.00,,,0.00,WUHU216HW,2013-05-29 09:01:00,
2013-05-29 02:06:00,63.2,50.8,29.68,North,0,0.0,0.0,64,0.00,,,0.00,WUHU216HW,2013-05-29 09:06:00,
2013-05-29 02:11:00,63.2,50.8,29.68,North,0,0.0,0.0,64,0.00,,,0.00,WUHU216HW,2013-05-29 09:11:00,
2013-05-29 02:16:00,63.2,50.8,29.67,North,0,0.0,0.0,64,0.00,,,0.00,WUHU216HW,2013-05-29 09:16:00,
2013-05-29 02:21:00,63.2,50.8,29.68,North,0,0.0,0.0,64,0.00,,,0.00,WUHU216HW,2013-05-29 09:21:00,
2013-05-29 02:26:00,63.2,51.2,29.68,North,0,0.0,0.0,65,0.00,,,0.00,WUHU216HW,2013-05-29 09:26:00,
2013-05-29 02:31:00,63.2,51.2,29.68,North,0,0.0,0.0,65,0.00,,,0.00,WUHU216HW,2013-05-29 09:31:00,
2013-05-29 02:36:00,63.2,51.2,29.68,North,0,0.0,0.0,65,0.00,,,0.00,WUHU216HW,2013-05-29 09:36:00,
2013-05-29 02:41:00,63.4,51.4,29.68,North,0,0.0,0.0,65,0.00,,,0.00,WUHU216HW,2013-05-29 09:41:00,
2013-05-29 02:46:00,63.5,51.6,29.68,North,0,0.0,0.0,65,0.00,,,0.00,WUHU216HW,2013-05-29 09:46:00,
2013-05-29 02:51:00,63.5,51.6,29.68,North,0,0.0,0.0,65,0.00,,,0.00,WUHU216HW,2013-05-29 09:51:00,
2013-05-29 02:56:00,63.4,51.4,29.68,North,0,0.0,0.0,65,0.00,,,0.00,WUHU216HW,2013-05-29 09:56:00,
2013-05-29 03:01:00,63.2,51.6,29.68,North,0,0.0,0.0,66,0.00,,,0.00,WUHU216HW,2013-05-29 10:01:00,
2013-05-29 03:06:00,63.0,51.4,29.69,North,0,0.0,0.0,66,0.00,,,0.00,WUHU216HW,2013-05-29 10:06:00,
2013-05-29 03:11:00,62.8,51.7,29.68,North,0,0.0,0.0,67,0.00,,,0.00,WUHU216HW,2013-05-29 10:11:00,
2013-05-29 03:16:00,62.6,51.5,29.68,North,0,0.0,0.0,67,0.00,,,0.00,WUHU216HW,2013-05-29 10:16:00,
2013-05-29 03:21:00,62.6,51.9,29.68,North,0,0.0,0.0,68,0.00,,,0.00,WUHU216HW,2013-05-29 10:21:00,
2013-05-29 03:26:00,62.3,51.6,29.68,North,0,0.0,0.0,68,0.00,,,0.00,WUHU216HW,2013-05-29 10:26:00,
2013-05-29 03:31:00,62.3,52.0,29.68,North,0,0.0,0.0,69,0.00,,,0.00,WUHU216HW,2013-05-29 10:31:00,
2013-05-29 03:36:00,62.1,52.3,29.68,North,0,0.0,0.0,70,0.00,,,0.00,WUHU216HW,2013-05-29 10:36:00,
2013-05-29 03:41:00,61.9,52.1,29.68,North,0,0.0,0.0,70,0.00,,,0.00,WUHU216HW,2013-05-29 10:41:00,
2013-05-29 03:46:00,61.9,51.7,29.67,North,0,0.0,0.0,69,0.00,,,0.00,WUHU216HW,2013-05-29 10:46:00,
2013-05-29 03:51:00,61.6,51.8,29.67,North,0,0.0,0.0,70,0.00,,,0.00,WUHU216HW,2013-05-29 10:51:00,
2013-05-29 03:56:00,61.4,51.9,29.67,North,0,0.0,0.0,71,0.00,,,0.00,WUHU216HW,2013-05-29 10:56:00,
2013-05-29 04:01:00,61.2,51.9,29.67,North,0,0.0,0.0,71,0.00,,,0.00,WUHU216HW,2013-05-29 11:01:00,
2013-05-29 04:06:00,61.0,52.0,29.67,North,0,0.0,0.0,72,0.00,,,0.00,WUHU216HW,2013-05-29 11:06:00,
2013-05-29 04:11:00,60.8,51.8,29.67,North,0,0.0,0.0,72,0.00,,,0.00,WUHU216HW,2013-05-29 11:11:00,
2013-05-29 04:16:00,60.5,51.8,29.67,North,0,0.0,0.0,73,0.00,,,0.00,WUHU216HW,2013-05-29 11:16:00,
2013-05-29 04:21:00,60.3,51.7,29.68,North,0,0.0,0.0,73,0.00,,,0.00,WUHU216HW,2013-05-29 11:21:00,
2013-05-29 04:26:00,60.1,51.5,29.68,North,0,0.0,0.0,73,0.00,,,0.00,WUHU216HW,2013-05-29 11:26:00,
2013-05-29 04:31:00,59.9,51.3,29.68,North,0,0.0,0.0,73,0.00,,,0.00,WUHU216HW,2013-05-29 11:31:00,
2013-05-29 04:36:00,59.8,51.5,29.67,North,0,0.0,0.0,74,0.00,,,0.00,WUHU216HW,2013-05-29 11:36:00,
2013-05-29 04:41:00,59.6,51.3,29.68,North,0,0.0,0.0,74,0.00,,,0.00,WUHU216HW,2013-05-29 11:41:00,
2013-05-29 04:46:00,59.6,51.3,29.68,North,0,0.0,0.0,74,0.00,,,0.00,WUHU216HW,2013-05-29 11:46:00,
2013-05-29 04:51:00,59.6,51.7,29.67,North,0,0.0,0.0,75,0.00,,,0.00,WUHU216HW,2013-05-29 11:51:00,
2013-05-29 04:56:00,59.4,51.5,29.67,North,0,0.0,0.0,75,0.00,,,0.00,WUHU216HW,2013-05-29 11:56:00,
2013-05-29 05:01:00,59.4,51.1,29.67,North,0,0.0,0.0,74,0.00,,,0.00,WUHU216HW,2013-05-29 12:01:00,
2013-05-29 05:06:00,59.4,51.5,29.68,North,0,0.0,0.0,75,0.00,,,0.00,WUHU216HW,2013-05-29 12:06:00,
2013-05-29 05:11:00,59.4,51.5,29.67,North,0,0.0,0.0,75,0.00,,,0.00,WUHU216HW,2013-05-29 12:11:00,
2013-05-29 05:16:00,59.2,51.3,29.68,North,0,0.0,0.0,75,0.00,,,0.00,WUHU216HW,2013-05-29 12:16:00,
2013-05-29 05:21:00,59.0,51.1,29.68,North,0,0.0,0.0,75,0.00,,,0.00,WUHU216HW,2013-05-29 12:21:00,
2013-05-29 05:26:00,58.9,50.9,29.68,North,0,0.0,0.0,75,0.00,,,0.00,WUHU216HW,2013-05-29 12:26:00,
2013-05-29 05:31:00,58.9,51.3,29.68,North,0,0.0,0.0,76,0.00,,,0.00,WUHU216HW,2013-05-29 12:31:00,
2013-05-29 05:36:00,58.9,51.3,29.68,North,0,0.0,0.0,76,0.00,,,0.00,WUHU216HW,2013-05-29 12:36:00,
2013-05-29 05:41:00,58.7,51.1,29.68,North,0,0.0,0.0,76,0.00,,,0.00,WUHU216HW,2013-05-29 12:41:00,
2013-05-29 05:46:00,58.9,51.3,29.68,North,0,0.0,0.0,76,0.00,,,0.00,WUHU216HW,2013-05-29 12:46:00,
2013-05-29 05:51:00,58.9,51.3,29.68,North,0,0.0,0.0,76,0.00,,,0.00,WUHU216HW,2013-05-29 12:51:00,
2013-05-29 05:56:00,58.9,51.3,29.69,North,0,0.0,0.0,76,0.00,,,0.00,WUHU216HW,2013-05-29 12:56:00,
2013-05-29 06:01:00,58.9,51.3,29.69,North,0,0.0,0.0,76,0.00,,,0.00,WUHU216HW,2013-05-29 13:01:00,
2013-05-29 06:06:00,58.9,51.3,29.69,North,0,0.0,0.0,76,0.00,,,0.00,WUHU216HW,2013-05-29 13:06:00,
2013-05-29 06:11:00,58.9,51.3,29.68,North,0,0.0,0.0,76,0.00,,,0.00,WUHU216HW,2013-05-29 13:11:00,
2013-05-29 06:16:00,58.9,51.3,29.69,North,0,0.0,0.0,76,0.00,,,0.00,WUHU216HW,2013-05-29 13:16:00,
2013-05-29 06:21:00,58.9,51.3,29.69,North,0,0.0,0.0,76,0.00,,,0.00,WUHU216HW,2013-05-29 13:21:00,
2013-05-29 06:26:00,59.0,51.1,29.69,North,0,0.0,0.0,75,0.00,,,0.00,WUHU216HW,2013-05-29 13:26:00,
2013-05-29 06:31:00,59.4,51.5,29.69,North,0,0.0,0.0,75,0.00,,,0.00,WUHU216HW,2013-05-29 13:31:00,
2013-05-29 06:36:00,59.8,51.5,29.69,North,0,0.0,0.0,74,0.00,,,0.00,WUHU216HW,2013-05-29 13:36:00,
2013-05-29 06:41:00,60.1,51.8,29.70,North,0,0.0,0.0,74,0.00,,,0.00,WUHU216HW,2013-05-29 13:41:00,
2013-05-29 06:46:00,61.0,52.8,29.70,North,0,0.0,0.0,74,0.00,,,0.00,WUHU216HW,2013-05-29 13:46:00,
2013-05-29 06:51:00,62.5,53.6,29.69,North,0,0.0,0.0,73,0.00,,,0.00,WUHU216HW,2013-05-29 13:51:00,
2013-05-29 06:56:00,64.6,55.8,29.70,North,0,0.0,0.0,73,0.00,,,0.00,WUHU216HW,2013-05-29 13:56:00,
2013-05-29 07:01:00,67.3,56.8,29.70,North,0,0.0,0.0,69,0.00,,,0.00,WUHU216HW,2013-05-29 14:01:00,
2013-05-29 07:06:00,69.5,57.6,29.71,North,0,0.0,0.0,66,0.00,,,0.00,WUHU216HW,2013-05-29 14:06:00,
2013-05-29 07:11:00,70.7,57.1,29.71,North,0,0.0,0.0,62,0.00,,,0.00,WUHU216HW,2013-05-29 14:11:00,
2013-05-29 07:16:00,70.2,55.8,29.71,North,0,0.0,0.0,60,0.00,,,0.00,WUHU216HW,2013-05-29 14:16:00,
2013-05-29 07:21:00,68.8,54.4,29.71,North,0,0.0,0.0,60,0.00,,,0.00,WUHU216HW,2013-05-29 14:21:00,
2013-05-29 07:26:00,67.5,53.6,29.71,North,0,0.0,0.0,61,0.00,,,0.00,WUHU216HW,2013-05-29 14:26:00,
2013-05-29 07:31:00,67.0,53.6,29.71,North,0,0.0,0.0,62,0.00,,,0.00,WUHU216HW,2013-05-29 14:31:00,
2013-05-29 07:36:00,67.0,53.9,29.70,North,0,0.0,0.0,63,0.00,,,0.00,WUHU216HW,2013-05-29 14:36:00,
2013-05-29 07:41:00,67.3,54.3,29.70,North,0,0.0,0.0,63,0.00,,,0.00,WUHU216HW,2013-05-29 14:41:00,
2013-05-29 07:46:00,67.7,54.6,29.71,North,0,0.0,0.0,63,0.00,,,0.00,WUHU216HW,2013-05-29 14:46:00,
2013-05-29 07:51:00,68.6,55.4,29.71,North,0,0.0,0.0,63,0.00,,,0.00,WUHU216HW,2013-05-29 14:51:00,
2013-05-29 07:56:00,70.4,56.8,29.71,North,0,0.0,0.0,62,0.00,,,0.00,WUHU216HW,2013-05-29 14:56:00,
2013-05-29 08:01:00,71.8,57.7,29.71,North,0,0.0,0.0,61,0.00,,,0.00,WUHU216HW,2013-05-29 15:01:00,
2013-05-29 08:06:00,72.2,57.1,29.70,North,0,0.0,0.0,59,0.00,,,0.00,WUHU216HW,2013-05-29 15:06:00,
2013-05-29 08:11:00,71.8,56.7,29.71,North,0,0.0,0.0,59,0.00,,,0.00,WUHU216HW,2013-05-29 15:11:00,
2013-05-29 08:16:00,71.1,56.1,29.71,North,0,0.0,0.0,59,0.00,,,0.00,WUHU216HW,2013-05-29 15:16:00,
2013-05-29 08:21:00,70.2,54.7,29.71,North,0,0.0,0.0,58,0.00,,,0.00,WUHU216HW,2013-05-29 15:21:00,
2013-05-29 08:26:00,69.5,54.5,29.71,North,0,0.0,0.0,59,0.00,,,0.00,WUHU216HW,2013-05-29 15:26:00,
2013-05-29 08:31:00,69.3,54.9,29.71,North,0,0.0,0.0,60,0.00,,,0.00,WUHU216HW,2013-05-29 15:31:00,
2013-05-29 08:36:00,69.1,54.7,29.71,North,0,0.0,0.0,60,0.00,,,0.00,WUHU216HW,2013-05-29 15:36:00,
2013-05-29 08:41:00,68.9,55.0,29.72,North,0,0.0,0.0,61,0.00,,,0.00,WUHU216HW,2013-05-29 15:41:00,
2013-05-29 08:46:00,69.5,55.5,29.72,North,0,0.0,0.0,61,0.00,,,0.00,WUHU216HW,2013-05-29 15:46:00,
2013-05-29 08:51:00,70.2,56.2,29.72,North,0,0.0,0.0,61,0.00,,,0.00,WUHU216HW,2013-05-29 15:51:00,
2013-05-29 08:56:00,70.6,56.1,29.72,North,0,0.0,0.0,60,0.00,,,0.00,WUHU216HW,2013-05-29 15:56:00,
2013-05-29 09:01:00,70.9,56.4,29.72,North,0,0.0,0.0,60,0.00,,,0.00,WUHU216HW,2013-05-29 16:01:00,
2013-05-29 09:06:00,71.3,56.7,29.71,North,0,0.0,0.0,60,0.00,,,0.00,WUHU216HW,2013-05-29 16:06:00,
2013-05-29 09:11:00,71.5,56.9,29.72,North,0,0.0,0.0,60,0.00,,,0.00,WUHU216HW,2013-05-29 16:11:00,
2013-05-29 09:16:00,71.8,57.3,29.72,North,0,0.0,0.0,60,0.00,,,0.00,WUHU216HW,2013-05-29 16:16:00,
2013-05-29 09:21:00,72.5,57.9,29.72,North,0,0.0,0.0,60,0.00,,,0.00,WUHU216HW,2013-05-29 16:21:00,
2013-05-29 09:26:00,73.4,58.1,29.72,North,0,0.0,0.0,59,0.00,,,0.00,WUHU216HW,2013-05-29 16:26:00,
2013-05-29 09:31:00,74.0,58.2,29.72,North,0,0.0,0.0,58,0.00,,,0.00,WUHU216HW,2013-05-29 16:31:00,
2013-05-29 09:36:00,73.8,57.5,29.71,North,0,0.0,0.0,57,0.00,,,0.00,WUHU216HW,2013-05-29 16:36:00,
2013-05-29 09:41:00,73.8,57.5,29.71,North,0,0.0,0.0,57,0.00,,,0.00,WUHU216HW,2013-05-29 16:41:00,
2013-05-29 09:46:00,73.6,57.3,29.71,North,0,0.0,0.0,57,0.00,,,0.00,WUHU216HW,2013-05-29 16:46:00,
2013-05-29 09:51:00,73.6,57.3,29.71,North,0,0.0,0.0,57,0.00,,,0.00,WUHU216HW,2013-05-29 16:51:00,
2013-05-29 09:56:00,73.4,57.2,29.72,North,0,0.0,0.0,57,0.00,,,0.00,WUHU216HW,2013-05-29 16:56:00,
2013-05-29 10:01:00,73.1,56.9,29.71,North,0,0.0,0.0,57,0.00,,,0.00,WUHU216HW,2013-05-29 17:01:00,
2013-05-29 10:06:00,72.9,56.7,29.71,North,0,0.0,0.0,57,0.00,,,0.00,WUHU216HW,2013-05-29 17:06:00,
2013-05-29 10:11:00,72.9,56.7,29.71,North,0,0.0,0.0,57,0.00,,,0.00,WUHU216HW,2013-05-29 17:11:00,
2013-05-29 10:16:00,72.9,56.7,29.71,North,0,0.0,0.0,57,0.00,,,0.00,WUHU216HW,2013-05-29 17:16:00,
2013-05-29 10:21:00,73.1,56.9,29.72,North,0,0.0,0.0,57,0.00,,,0.00,WUHU216HW,2013-05-29 17:21:00,
2013-05-29 10:26:00,73.1,56.9,29.72,North,0,0.0,0.0,57,0.00,,,0.00,WUHU216HW,2013-05-29 17:26:00,
2013-05-29 10:31:00,73.1,56.3,29.72,North,0,0.0,0.0,56,0.00,,,0.00,WUHU216HW,2013-05-29 17:31:00,
2013-05-29 10:36:00,73.1,56.3,29.72,North,0,0.0,0.0,56,0.00,,,0.00,WUHU216HW,2013-05-29 17:36:00,
2013-05-29 10:41:00,73.3,56.5,29.72,North,0,0.0,0.0,56,0.00,,,0.00,WUHU216HW,2013-05-29 17:41:00,
2013-05-29 10:46:00,73.6,56.9,29.72,North,0,0.0,0.0,56,0.00,,,0.00,WUHU216HW,2013-05-29 17:46:00,
2013-05-29 10:51:00,73.8,57.1,29.72,North,0,0.0,0.0,56,0.00,,,0.00,WUHU216HW,2013-05-29 17:51:00,
2013-05-29 10:56:00,73.8,56.5,29.72,North,0,0.0,0.0,55,0.00,,,0.00,WUHU216HW,2013-05-29 17:56:00,
2013-05-29 11:01:00,73.8,56.5,29.72,North,0,0.0,0.0,55,0.00,,,0.00,WUHU216HW,2013-05-29 18:01:00,
2013-05-29 11:06:00,73.8,56.0,29.72,North,0,0.0,0.0,54,0.00,,,0.00,WUHU216HW,2013-05-29 18:06:00,
2013-05-29 11:11:00,73.8,56.5,29.72,North,0,0.0,0.0,55,0.00,,,0.00,WUHU216HW,2013-05-29 18:11:00,
2013-05-29 11:16:00,74.2,56.9,29.71,North,0,0.0,0.0,55,0.00,,,0.00,WUHU216HW,2013-05-29 18:16:00,
2013-05-29 11:21:00,74.2,55.4,29.71,NNE,23,1.0,1.3,52,0.00,,,0.00,WUHU216HW,2013-05-29 18:21:00,
2013-05-29 11:26:00,74.5,57.2,29.71,SW,224,0.6,3.4,55,0.00,,,0.00,WUHU216HW,2013-05-29 18:26:00,
2013-05-29 11:31:00,74.7,56.9,29.71,SSE,158,1.6,3.4,54,0.00,,,0.00,WUHU216HW,2013-05-29 18:31:00,
2013-05-29 11:36:00,75.1,56.3,29.71,East,96,1.1,1.6,52,0.00,,,0.00,WUHU216HW,2013-05-29 18:36:00,
2013-05-29 11:41:00,75.6,57.2,29.72,SSE,150,0.5,4.3,53,0.00,,,0.00,WUHU216HW,2013-05-29 18:41:00,
2013-05-29 11:46:00,76.1,58.2,29.71,South,180,1.6,4.3,54,0.00,,,0.00,WUHU216HW,2013-05-29 18:46:00,
2013-05-29 11:51:00,76.7,58.2,29.71,SSW,203,2.0,4.0,53,0.00,,,0.00,WUHU216HW,2013-05-29 18:51:00,
2013-05-29 11:56:00,77.2,58.2,29.71,WNW,283,1.6,4.0,52,0.00,,,0.00,WUHU216HW,2013-05-29 18:56:00,
2013-05-29 12:01:00,77.2,56.6,29.71,North,6,2.4,3.8,49,0.00,,,0.00,WUHU216HW,2013-05-29 19:01:00,
2013-05-29 12:06:00,77.2,56.0,29.71,North,0,0.6,3.8,48,0.00,,,0.00,WUHU216HW,2013-05-29 19:06:00,
2013-05-29 12:11:00,77.4,57.4,29.71,WNW,293,1.6,3.4,50,0.00,,,0.00,WUHU216HW,2013-05-29 19:11:00,
2013-05-29 12:16:00,77.8,57.1,29.71,North,357,1.0,2.5,49,0.00,,,0.00,WUHU216HW,2013-05-29 19:16:00,
2013-05-29 12:21:00,78.1,56.8,29.71,NE,56,1.3,2.7,48,0.00,,,0.00,WUHU216HW,2013-05-29 19:21:00,
2013-05-29 12:26:00,78.1,55.6,29.71,NE,45,1.6,2.7,46,0.00,,,0.00,WUHU216HW,2013-05-29 19:26:00,
2013-05-29 12:31:00,77.9,56.6,29.71,WSW,248,2.0,2.5,48,0.00,,,0.00,WUHU216HW,2013-05-29 19:31:00,
2013-05-29 12:36:00,78.3,57.6,29.71,SSW,197,2.0,4.0,49,0.00,,,0.00,WUHU216HW,2013-05-29 19:36:00,
2013-05-29 12:41:00,79.2,59.1,29.71,WNW,290,2.5,4.0,50,0.00,,,0.00,WUHU216HW,2013-05-29 19:41:00,
2013-05-29 12:46:00,80.3,59.4,29.71,West,261,1.1,3.4,49,0.00,,,0.00,WUHU216HW,2013-05-29 19:46:00,
2013-05-29 12:51:00,81.2,60.2,29.71,NW,315,1.6,2.5,49,0.00,,,0.00,WUHU216HW,2013-05-29 19:51:00,
2013-05-29 12:56:00,81.9,59.6,29.70,WSW,248,1.6,2.9,47,0.00,,,0.00,WUHU216HW,2013-05-29 19:56:00,
2013-05-29 13:01:00,82.1,58.5,29.70,North,0,1.1,5.1,45,0.00,,,0.00,WUHU216HW,2013-05-29 20:01:00,
2013-05-29 13:06:00,82.3,59.3,29.70,SSW,203,3.1,5.1,46,0.00,,,0.00,WUHU216HW,2013-05-29 20:06:00,
2013-05-29 13:11:00,82.4,59.5,29.70,West,270,1.1,3.6,46,0.00,,,0.00,WUHU216HW,2013-05-29 20:11:00,
2013-05-29 13:16:00,83.0,59.4,29.69,West,276,0.9,3.6,45,0.00,,,0.00,WUHU216HW,2013-05-29 20:16:00,
2013-05-29 13:21:00,83.2,60.1,29.70,WSW,248,2.5,3.4,46,0.00,,,0.00,WUHU216HW,2013-05-29 20:21:00,
2013-05-29 13:26:00,83.5,59.9,29.69,SSW,203,2.9,4.9,45,0.00,,,0.00,WUHU216HW,2013-05-29 20:26:00,
2013-05-29 13:31:00,83.7,59.4,29.69,WSW,248,3.4,4.9,44,0.00,,,0.00,WUHU216HW,2013-05-29 20:31:00,
2013-05-29 13:36:00,83.5,58.7,29.69,ENE,71,0.7,4.0,43,0.00,,,0.00,WUHU216HW,2013-05-29 20:36:00,
2013-05-29 13:41:00,83.9,59.6,29.69,WNW,296,1.7,3.8,44,0.00,,,0.00,WUHU216HW,2013-05-29 20:41:00,
2013-05-29 13:46:00,83.9,59.0,29.69,SW,225,3.1,4.5,43,0.00,,,0.00,WUHU216HW,2013-05-29 20:46:00,
2013-05-29 13:51:00,84.2,59.3,29.69,SW,223,3.6,4.7,43,0.00,,,0.00,WUHU216HW,2013-05-29 20:51:00,
2013-05-29 13:56:00,84.6,59.7,29.69,NW,315,2.5,5.6,43,0.00,,,0.00,WUHU216HW,2013-05-29 20:56:00,
2013-05-29 14:01:00,84.4,56.8,29.69,NNE,28,2.1,5.6,39,0.00,,,0.00,WUHU216HW,2013-05-29 21:01:00,
2013-05-29 14:06:00,83.5,57.4,29.68,WSW,248,0.7,4.0,41,0.00,,,0.00,WUHU216HW,2013-05-29 21:06:00,
2013-05-29 14:11:00,83.5,58.1,29.68,SSW,193,3.2,6.9,42,0.00,,,0.00,WUHU216HW,2013-05-29 21:11:00,
2013-05-29 14:16:00,83.9,59.0,29.69,WNW,293,2.2,6.9,43,0.00,,,0.00,WUHU216HW,2013-05-29 21:16:00,
2013-05-29 14:21:00,83.7,56.2,29.68,NE,45,1.6,5.4,39,0.00,,,0.00,WUHU216HW,2013-05-29 21:21:00,
2013-05-29 14:26:00,82.8,57.3,29.68,South,180,3.8,3.8,42,0.00,,,0.00,WUHU216HW,2013-05-29 21:26:00,
2013-05-29 14:31:00,82.6,57.2,29.68,WSW,241,1.4,4.0,42,0.00,,,0.00,WUHU216HW,2013-05-29 21:31:00,
2013-05-29 14:36:00,83.2,58.3,29.68,SSW,208,3.2,5.4,43,0.00,,,0.00,WUHU216HW,2013-05-29 21:36:00,
2013-05-29 14:41:00,83.5,58.1,29.68,NW,315,1.8,5.4,42,0.00,,,0.00,WUHU216HW,2013-05-29 21:41:00,
2013-05-29 14:46:00,84.1,59.1,29.68,NW,315,2.2,2.9,43,0.00,,,0.00,WUHU216HW,2013-05-29 21:46:00,
2013-05-29 14:51:00,84.1,58.5,29.68,SSW,203,3.6,3.6,42,0.00,,,0.00,WUHU216HW,2013-05-29 21:51:00,
2013-05-29 14:56:00,84.2,58.7,29.68,WNW,299,2.6,4.3,42,0.00,,,0.00,WUHU216HW,2013-05-29 21:56:00,
2013-05-29 15:01:00,84.4,58.9,29.68,WNW,293,2.0,4.3,42,0.00,,,0.00,WUHU216HW,2013-05-29 22:01:00,
2013-05-29 15:06:00,84.8,58.5,29.68,SW,225,3.1,3.4,41,0.00,,,0.00,WUHU216HW,2013-05-29 22:06:00,
2013-05-29 15:11:00,85.0,58.7,29.68,West,270,3.8,4.9,41,0.00,,,0.00,WUHU216HW,2013-05-29 22:11:00,
2013-05-29 15:16:00,85.1,58.9,29.67,West,270,2.2,4.9,41,0.00,,,0.00,WUHU216HW,2013-05-29 22:16:00,
2013-05-29 15:21:00,85.3,58.4,29.68,NW,320,1.0,4.7,40,0.00,,,0.00,WUHU216HW,2013-05-29 22:21:00,
2013-05-29 15:26:00,85.3,57.6,29.67,WSW,248,2.2,4.7,39,0.00,,,0.00,WUHU216HW,2013-05-29 22:26:00,
2013-05-29 15:31:00,85.3,58.4,29.67,NNW,338,3.4,4.7,40,0.00,,,0.00,WUHU216HW,2013-05-29 22:31:00,
2013-05-29 15:36:00,85.3,57.6,29.67,NNW,344,1.2,4.7,39,0.00,,,0.00,WUHU216HW,2013-05-29 22:36:00,
2013-05-29 15:41:00,85.3,57.6,29.67,SW,225,0.7,3.4,39,0.00,,,0.00,WUHU216HW,2013-05-29 22:41:00,
2013-05-29 15:46:00,85.3,58.4,29.67,NW,315,4.3,4.3,40,0.00,,,0.00,WUHU216HW,2013-05-29 22:46:00,
2013-05-29 15:51:00,85.7,58.7,29.67,SW,218,1.9,4.3,40,0.00,,,0.00,WUHU216HW,2013-05-29 22:51:00,
2013-05-29 15:56:00,86.0,59.7,29.67,WSW,239,2.0,4.3,41,0.00,,,0.00,WUHU216HW,2013-05-29 22:56:00,
2013-05-29 16:01:00,86.2,59.9,29.66,SSW,213,1.5,3.4,41,0.00,,,0.00,WUHU216HW,2013-05-29 23:01:00,
2013-05-29 16:06:00,86.4,60.0,29.66,NW,324,1.4,3.4,41,0.00,,,0.00,WUHU216HW,2013-05-29 23:06:00,
2013-05-29 16:11:00,86.2,59.9,29.66,SW,225,4.3,5.8,41,0.00,,,0.00,WUHU216HW,2013-05-29 23:11:00,
2013-05-29 16:16:00,86.0,58.2,29.65,West,270,5.1,5.8,39,0.00,,,0.00,WUHU216HW,2013-05-29 23:16:00,
2013-05-29 16:21:00,85.7,57.2,29.66,NNW,327,2.0,6.0,38,0.00,,,0.00,WUHU216HW,2013-05-29 23:21:00,
2013-05-29 16:26:00,85.5,53.8,29.66,NNW,342,1.9,6.0,34,0.00,,,0.00,WUHU216HW,2013-05-29 23:26:00,
2013-05-29 16:31:00,85.1,51.9,29.66,North,0,1.3,3.4,32,0.00,,,0.00,WUHU216HW,2013-05-29 23:31:00,
2013-05-29 16:36:00,85.0,51.8,29.66,NNW,331,1.6,2.5,32,0.00,,,0.00,WUHU216HW,2013-05-29 23:36:00,
2013-05-29 16:41:00,84.8,51.6,29.65,WNW,293,1.6,2.5,32,0.00,,,0.00,WUHU216HW,2013-05-29 23:41:00,
2013-05-29 16:46:00,84.6,50.6,29.65,NE,43,1.3,2.5,31,0.00,,,0.00,WUHU216HW,2013-05-29 23:46:00,
2013-05-29 16:51:00,84.4,52.8,29.65,SW,232,1.6,3.4,34,0.00,,,0.00,WUHU216HW,2013-05-29 23:51:00,
2013-05-29 16:56:00,84.6,54.5,29.65,SSW,203,2.9,3.4,36,0.00,,,0.00,WUHU216HW,2013-05-29 23:56:00,
2013-05-29 17:01:00,84.6,56.2,29.65,SSW,203,1.6,3.4,38,0.00,,,0.00,WUHU216HW,2013-05-30 00:01:00,
2013-05-29 17:06:00,84.8,56.4,29.65,WSW,248,4.0,4.0,38,0.00,,,0.00,WUHU216HW,2013-05-30 00:06:00,
2013-05-29 17:11:00,84.6,57.0,29.65,SSE,150,2.0,4.7,39,0.00,,,0.00,WUHU216HW,2013-05-30 00:11:00,
2013-05-29 17:16:00,84.2,56.6,29.65,SSW,213,3.2,4.7,39,0.00,,,0.00,WUHU216HW,2013-05-30 00:16:00,
2013-05-29 17:21:00,84.2,56.6,29.65,WSW,248,1.8,4.7,39,0.00,,,0.00,WUHU216HW,2013-05-30 00:21:00,
2013-05-29 17:26:00,84.1,56.4,29.65,WNW,296,1.2,2.5,39,0.00,,,0.00,WUHU216HW,2013-05-30 00:26:00,
2013-05-29 17:31:00,83.9,56.4,29.65,SSW,211,2.8,3.4,39,0.00,,,0.00,WUHU216HW,2013-05-30 00:31:00,
2013-05-29 17:37:00,83.5,55.2,29.65,SW,229,2.5,5.6,38,0.00,,,0.00,WUHU216HW,2013-05-30 00:37:00,
2013-05-29 17:42:00,83.3,55.8,29.65,West,270,2.5,5.6,39,0.00,,,0.00,WUHU216HW,2013-05-30 00:42:00,
2013-05-29 17:47:00,83.2,56.4,29.65,SSW,201,3.2,5.6,40,0.00,,,0.00,WUHU216HW,2013-05-30 00:47:00,
2013-05-29 17:52:00,82.8,56.2,29.65,SSW,203,4.5,5.6,40,0.00,,,0.00,WUHU216HW,2013-05-30 00:52:00,
2013-05-29 17:57:00,82.4,55.8,29.65,WSW,248,3.4,6.0,40,0.00,,,0.00,WUHU216HW,2013-05-30 00:57:00,
2013-05-29 18:02:00,82.1,56.1,29.65,WSW,240,1.8,6.0,41,0.00,,,0.00,WUHU216HW,2013-05-30 01:02:00,
2013-05-29 18:07:00,81.7,55.8,29.64,SSW,209,3.2,6.3,41,0.00,,,0.00,WUHU216HW,2013-05-30 01:07:00,
2013-05-29 18:12:00,81.5,55.6,29.64,West,270,2.9,6.3,41,0.00,,,0.00,WUHU216HW,2013-05-30 01:12:00,
2013-05-29 18:17:00,81.2,55.9,29.65,SW,225,2.7,4.5,42,0.00,,,0.00,WUHU216HW,2013-05-30 01:17:00,
2013-05-29 18:22:00,81.0,55.7,29.64,WSW,248,2.7,4.9,42,0.00,,,0.00,WUHU216HW,2013-05-30 01:22:00,
2013-05-29 18:27:00,80.6,56.0,29.64,South,180,4.0,5.6,43,0.00,,,0.00,WUHU216HW,2013-05-30 01:27:00,
2013-05-29 18:32:00,80.1,55.5,29.65,South,180,4.8,6.9,43,0.00,,,0.00,WUHU216HW,2013-05-30 01:32:00,
2013-05-29 18:37:00,79.7,55.2,29.65,SSW,203,2.5,6.9,43,0.00,,,0.00,WUHU216HW,2013-05-30 01:37:00,
2013-05-29 18:42:00,79.2,54.7,29.65,WSW,248,4.6,5.6,43,0.00,,,0.00,WUHU216HW,2013-05-30 01:42:00,
2013-05-29 18:47:00,78.8,54.4,29.65,SW,225,6.9,6.9,43,0.00,,,0.00,WUHU216HW,2013-05-30 01:47:00,
2013-05-29 18:52:00,78.5,54.7,29.65,North,0,0.0,6.9,44,0.00,,,0.00,WUHU216HW,2013-05-30 01:52:00,
2013-05-29 18:57:00,78.1,54.4,29.65,North,0,0.0,6.9,44,0.00,,,0.00,WUHU216HW,2013-05-30 01:57:00,
2013-05-29 19:02:00,77.9,54.2,29.65,North,0,0.0,0.0,44,0.00,,,0.00,WUHU216HW,2013-05-30 02:02:00,
2013-05-29 19:07:00,77.6,53.9,29.65,North,0,0.0,0.0,44,0.00,,,0.00,WUHU216HW,2013-05-30 02:07:00,
2013-05-29 19:12:00,77.2,53.6,29.65,North,0,0.0,0.0,44,0.00,,,0.00,WUHU216HW,2013-05-30 02:12:00,
2013-05-29 19:17:00,76.9,53.8,29.65,North,0,0.0,0.0,45,0.00,,,0.00,WUHU216HW,2013-05-30 02:17:00,
2013-05-29 19:22:00,76.7,53.6,29.65,North,0,0.0,0.0,45,0.00,,,0.00,WUHU216HW,2013-05-30 02:22:00,
2013-05-29 19:27:00,76.3,53.4,29.65,North,0,0.0,0.0,45,0.00,,,0.00,WUHU216HW,2013-05-30 02:27:00,
2013-05-29 19:32:00,76.0,53.6,29.65,North,0,0.0,0.0,46,0.00,,,0.00,WUHU216HW,2013-05-30 02:32:00,
2013-05-29 19:37:00,75.8,53.5,29.65,North,0,0.0,0.0,46,0.00,,,0.00,WUHU216HW,2013-05-30 02:37:00,
2013-05-29 19:42:00,75.6,53.3,29.65,North,0,0.0,0.0,46,0.00,,,0.00,WUHU216HW,2013-05-30 02:42:00,
2013-05-29 19:47:00,75.2,53.0,29.65,North,0,0.0,0.0,46,0.00,,,0.00,WUHU216HW,2013-05-30 02:47:00,
2013-05-29 19:52:00,75.1,52.8,29.65,North,0,0.0,0.0,46,0.00,,,0.00,WUHU216HW,2013-05-30 02:52:00,
2013-05-29 19:57:00,74.9,53.3,29.65,North,0,0.0,0.0,47,0.00,,,0.00,WUHU216HW,2013-05-30 02:57:00,
2013-05-29 20:02:00,74.5,52.9,29.65,North,0,0.0,0.0,47,0.00,,,0.00,WUHU216HW,2013-05-30 03:02:00,
2013-05-29 20:07:00,74.3,52.8,29.65,North,0,0.0,0.0,47,0.00,,,0.00,WUHU216HW,2013-05-30 03:07:00,
2013-05-29 20:12:00,74.2,53.2,29.65,North,0,0.0,0.0,48,0.00,,,0.00,WUHU216HW,2013-05-30 03:12:00,
2013-05-29 20:17:00,74.0,53.0,29.65,North,0,0.0,0.0,48,0.00,,,0.00,WUHU216HW,2013-05-30 03:17:00,
2013-05-29 20:22:00,73.8,52.2,29.65,North,0,0.0,0.0,47,0.00,,,0.00,WUHU216HW,2013-05-30 03:22:00,
2013-05-29 20:27:00,73.4,51.8,29.66,North,0,0.0,0.0,47,0.00,,,0.00,WUHU216HW,2013-05-30 03:27:00,
2013-05-29 20:32:00,72.9,51.9,29.66,North,0,0.0,0.0,48,0.00,,,0.00,WUHU216HW,2013-05-30 03:32:00,
2013-05-29 20:37:00,72.4,51.5,29.65,North,0,0.0,0.0,48,0.00,,,0.00,WUHU216HW,2013-05-30 03:37:00,
2013-05-29 20:42:00,72.2,51.9,29.66,North,0,0.0,0.0,49,0.00,,,0.00,WUHU216HW,2013-05-30 03:42:00,
2013-05-29 20:47:00,72.0,51.8,29.66,North,0,0.0,0.0,49,0.00,,,0.00,WUHU216HW,2013-05-30 03:47:00,
2013-05-29 20:52:00,71.6,51.4,29.66,North,0,0.0,0.0,49,0.00,,,0.00,WUHU216HW,2013-05-30 03:52:00,
2013-05-29 20:57:00,71.5,51.8,29.66,North,0,0.0,0.0,50,0.00,,,0.00,WUHU216HW,2013-05-30 03:57:00,
2013-05-29 21:01:00,71.1,51.6,29.66,North,0,0.0,0.0,50,0.00,,,0.00,WUHU216HW,2013-05-30 04:01:00,
2013-05-29 21:06:00,70.7,51.2,29.66,North,0,0.0,0.0,50,0.00,,,0.00,WUHU216HW,2013-05-30 04:06:00,
2013-05-29 21:11:00,70.6,51.6,29.66,North,0,0.0,0.0,51,0.00,,,0.00,WUHU216HW,2013-05-30 04:11:00,
2013-05-29 21:16:00,70.2,51.2,29.66,North,0,0.0,0.0,51,0.00,,,0.00,WUHU216HW,2013-05-30 04:16:00,
2013-05-29 21:21:00,69.8,51.0,29.66,North,0,0.0,0.0,51,0.00,,,0.00,WUHU216HW,2013-05-30 04:21:00,
2013-05-29 21:26:00,69.8,51.0,29.66,North,0,0.0,0.0,51,0.00,,,0.00,WUHU216HW,2013-05-30 04:26:00,
2013-05-29 21:31:00,69.7,50.8,29.66,North,0,0.0,0.0,51,0.00,,,0.00,WUHU216HW,2013-05-30 04:31:00,
2013-05-29 21:36:00,69.5,50.6,29.67,North,0,0.0,0.0,51,0.00,,,0.00,WUHU216HW,2013-05-30 04:36:00,
2013-05-29 21:41:00,69.1,50.2,29.67,North,0,0.0,0.0,51,0.00,,,0.00,WUHU216HW,2013-05-30 04:41:00,
2013-05-29 21:46:00,68.8,50.4,29.67,North,0,0.0,0.0,52,0.00,,,0.00,WUHU216HW,2013-05-30 04:46:00,
2013-05-29 21:51:00,68.6,50.2,29.67,North,0,0.0,0.0,52,0.00,,,0.00,WUHU216HW,2013-05-30 04:51:00,
2013-05-29 21:56:00,68.2,50.4,29.67,North,0,0.0,0.0,53,0.00,,,0.00,WUHU216HW,2013-05-30 04:56:00,
2013-05-29 22:01:00,68.0,50.2,29.68,North,0,0.0,0.0,53,0.00,,,0.00,WUHU216HW,2013-05-30 05:01:00,
2013-05-29 22:06:00,67.7,50.0,29.68,North,0,0.0,0.0,53,0.00,,,0.00,WUHU216HW,2013-05-30 05:06:00,
2013-05-29 22:11:00,67.3,50.0,29.68,North,0,0.0,0.0,54,0.00,,,0.00,WUHU216HW,2013-05-30 05:11:00,
2013-05-29 22:16:00,67.1,50.0,29.68,North,0,0.0,0.0,54,0.00,,,0.00,WUHU216HW,2013-05-30 05:16:00,
2013-05-29 22:21:00,67.0,49.8,29.68,North,0,0.0,0.0,54,0.00,,,0.00,WUHU216HW,2013-05-30 05:21:00,
2013-05-29 22:26:00,66.8,50.0,29.68,North,0,0.0,0.0,55,0.00,,,0.00,WUHU216HW,2013-05-30 05:26:00,
2013-05-29 22:31:00,66.8,50.0,29.68,North,0,0.0,0.0,55,0.00,,,0.00,WUHU216HW,2013-05-30 05:31:00,
2013-05-29 22:36:00,66.6,50.4,29.68,North,0,0.0,0.0,56,0.00,,,0.00,WUHU216HW,2013-05-30 05:36:00,
2013-05-29 22:41:00,66.6,50.4,29.68,North,0,0.0,0.0,56,0.00,,,0.00,WUHU216HW,2013-05-30 05:41:00,
2013-05-29 22:46:00,66.6,50.4,29.69,North,0,0.0,0.0,56,0.00,,,0.00,WUHU216HW,2013-05-30 05:46:00,
2013-05-29 22:51:00,66.4,50.2,29.69,North,0,0.0,0.0,56,0.00,,,0.00,WUHU216HW,2013-05-30 05:51:00,
2013-05-29 22:56:00,66.4,50.2,29.69,North,0,0.0,0.0,56,0.00,,,0.00,WUHU216HW,2013-05-30 05:56:00,
2013-05-29 23:01:00,66.2,50.6,29.68,North,0,0.0,0.0,57,0.00,,,0.00,WUHU216HW,2013-05-30 06:01:00,
2013-05-29 23:06:00,66.1,49.9,29.69,North,0,0.0,0.0,56,0.00,,,0.00,WUHU216HW,2013-05-30 06:06:00,
2013-05-29 23:11:00,65.7,50.1,29.69,North,0,0.0,0.0,57,0.00,,,0.00,WUHU216HW,2013-05-30 06:11:00,
2013-05-29 23:16:00,65.5,49.9,29.69,North,0,0.0,0.0,57,0.00,,,0.00,WUHU216HW,2013-05-30 06:16:00,
2013-05-29 23:21:00,65.2,49.5,29.69,North,0,0.0,0.0,57,0.00,,,0.00,WUHU216HW,2013-05-30 06:21:00,
2013-05-29 23:26:00,64.4,49.2,29.69,North,0,0.0,0.0,58,0.00,,,0.00,WUHU216HW,2013-05-30 06:26:00,
2013-05-29 23:31:00,64.1,49.0,29.69,North,0,0.0,0.0,58,0.00,,,0.00,WUHU216HW,2013-05-30 06:31:00,
2013-05-29 23:36:00,63.7,49.1,29.69,North,0,0.0,0.0,59,0.00,,,0.00,WUHU216HW,2013-05-30 06:36:00,
2013-05-29 23:41:00,63.4,48.8,29.69,North,0,0.0,0.0,59,0.00,,,0.00,WUHU216HW,2013-05-30 06:41:00,
2013-05-29 23:46:00,63.0,49.0,29.69,North,0,0.0,0.0,60,0.00,,,0.00,WUHU216HW,2013-05-30 06:46:00,
2013-05-29 23:51:00,62.8,49.1,29.69,North,0,0.0,0.0,61,0.00,,,0.00,WUHU216HW,2013-05-30 06:51:00,
2013-05-29 23:56:00,62.6,49.1,29.69,North,0,0.0,0.0,61,0.00,,,0.00,WUHU216HW,2013-05-30 06:56:00,